Regional Weather Roundup
Issued by NWS Cleveland, OH

Home | Current Version | Previous Version | Text Only | Print | Product List | Glossary Off
Versions: 1 2 3 4 5 6 7 8 9 10 11 12 13 14 15 16 17 18 19 20 21 22 23 24 25 26 27 28 29 30 31 32 33 34 35 36 37 38 39 40 41 42 43 44 45 46 47 48 49 50

000
ASUS41 KCLE 140802
RWRCLE
OHIO REGIONAL WEATHER ROUNDUP
NATIONAL WEATHER SERVICE CLEVELAND, OH
300 AM EST THU DEC 14 2017

NOTE: "FAIR" INDICATES FEW OR NO CLOUDS BELOW 12,000 FEET WITH NO
SIGNIFICANT WEATHER AND/OR OBSTRUCTIONS TO VISIBILITY.

OHZ001>008-015>018-024>027-034-035-043-044-140900-
   NORTHWEST OHIO

CITY           SKY/WX    TMP DP  RH WIND       PRES   REMARKS
DEFIANCE       CLEAR     17  12  80 NW9       29.75R WCI   6
FINDLAY        MOCLDY    22  16  78 NW14      29.67R WCI   9
TOLEDO EXPRESS CLEAR     19  16  88 NW9       29.71R WCI   8
TOLEDO EXEC    PTCLDY    21  16  81 NW12      29.70R WCI   9
LIMA           CLOUDY    22  19  89 NW13G23   29.69R WCI  10
$$

OHZ009>014-019>023-028>033-038-089-140900-
   NORTHEAST OHIO

CITY           SKY/WX    TMP DP  RH WIND       PRES   REMARKS
CLE-HOPKINS    FLURRIES  28  24  85 N10       29.58R WCI  19
CLE-LAKEFRONT  FLURRIES  25  22  88 E5        29.56R WCI  19
CUY CO. ARPT   NOT AVBL
LORAIN-ELYRIA  LGT SNOW  27  21  78 N12       29.59R VSB 3/4 WCI  17
ASHTABULA      CLOUDY    20  18  92 N5        29.52R FOG     WCI  13
AKRON-CANTON   LGT SNOW  25  20  81 NW12      29.50R WCI  14
WOOSTER        LGT SNOW  24  22  91 NW12      29.56R FOG     WCI  13
MANSFIELD      LGT SNOW  25  23  92 NW22G28   29.57R FOG     WCI  10
YOUNGSTOWN     LGT SNOW  22  19  89 N8        29.46R FOG     WCI  12
$$

OHZ042-051>053-060>062-070>072-077>081-140900-
  SOUTHWEST OHIO

CITY           SKY/WX    TMP DP  RH WIND       PRES   REMARKS
CINC-COVINGTON CLOUDY    33  23  66 NW17G28   29.74R WCI  22
CINC-LUNKEN    CLOUDY    35  23  61 NW14G22   29.76R WCI  26
HAMILTON       CLOUDY    32  22  66 W20G29    29.75R WCI  20
DAYTON         CLOUDY    29  24  82 NW17G28   29.69R WCI  17
WRIGHT-PAT AFB FLURRIES  31  23  72 W14G25    29.69R WCI  20
DAYTON GENERAL CLOUDY    30  21  69 NW13G23   29.70R WCI  20
WILMINGTON     CLOUDY    31  23  72 W22G29    29.68R WCI  18
$$

OHZ036-037-039>041-045>050-054>059-063>069-073>076-082>088-140900-
  CENTRAL AND SOUTHEAST OHIO

CITY           SKY/WX    TMP DP  RH WIND       PRES   REMARKS
COLUMBUS       LGT SNOW  31  25  78 NW23G32   29.62R WCI  18
OSU AIRPORT    FLURRIES  29  23  78 NW18G33   29.64R WCI  16
BOLTON FIELD   LGT SNOW  31  25  77 NW15G24   29.64R WCI  20
RICKENBACK AFB CLOUDY    32  24  73 NW22G32   29.64R WCI  19
NEWARK         LGT SNOW  32  25  75 W21G30    29.60R WCI  20
MARION         LGT SNOW  25  21  85 NW17G24   29.64R FOG     WCI  12
LANCASTER      CLOUDY    32  24  72 NW21G33   29.63R WCI  20
ZANESVILLE     LGT SNOW  33  26  75 W23G35    29.57R WCI  21
NEW PHILLY     NOT AVBL
$$



USA.gov is the U.S. government's official web portal to all federal, state and local government web resources and services.